   M. Larson, G. J. Leonard, D. Rankin, R. L. Seaman, F. C. Shelly. 1.5-m
   reflector + 10K CCD.
(H06) RAS Observatory, Mayhill  (N32.903325 W105.528700)  US/New
   Mexico.  Observers E. Guido, G. Sostero, V. Gonano, L. Donato.
(H21) Astronomical Research Observatory, Westfield  (N39.483057 W87.968270)
   US/Illinois. 0.76-m f/3.0 astrograph + CCD.
(I52) Steward Observatory, Mt. Lemmon Station  (N32.442547 W110.788920)
   US/Arizona.  Observers T. A. Pruyne, B. M. Africano, E. J. Christensen, G.
   A. Farneth, D. C. Fuls, A. R. Gibbs, A. D. Grauer, H. Gröller, J. A.
   Johnson, R. A. Kowalski, S. M. Larson, G. J. Leonard, D. Rankin, R. L.
   Seaman, F. C. Shelly. 1.0-m reflector + CCD.
(K51) Osservatorio del Celado, Castello Tesino  (N46.029412 E11.657900)
   Italy.
(L01) Višnjan Observatory, Tičan  (N45.290900 E13.749300)  Croatia.
   Observers K. Korlević, E. Pettarin. Measurer E. Pettarin. 1.0-m f/2.9
   reflector + CCD.
(L07) Osservatorio Salvatore di Giacomo, Agerola  (N40.623927 E14.564060)
   Italy.
(N51) GROWTH India Telescope, IAO, Hanle  (N32.779244 E78.964610)  India.

Orbital elements:  C3DAPM2
   Perihelion 2020 Oct 9.620454 +/- 0.00107 TT = 14:53:27 (JD 2459132.120454)
Epoch 2020 Oct 24.0 TT = JDT 2459146.5   Ju: 0.8415           AutoNEOCP
M   0.00048842 +/- 0.000007         (J2000 ecliptic)
n   0.00003396 +/- 5.25e-7          Peri.   90.29122 +/- 0.0006
a 944.281325 +/- 9.71               Node   237.86151 +/- 0.00012
e   0.9979994 +/- 2.06e-5           Incl.   66.60422 +/- 0.00012
P  29016                   H 16.8   G  0.15   U  3.0  
q 1.88904287 +/- 1.22e-5    Q 1886.67360 +/- 19
From 107 observations 2020 Apr. 19-Oct. 24; mean residual 0".63
Residuals in arcseconds: 
200419 F51  .21-  .16-    201009 I52  .44+  .65+    201020 658  .15-  .17-    
200419 F51  .05+  .40+    201009 I52  .10+  .21-    201020 658  .00   .03-    
200419 F51  .04-  .37-    201009 I52  .00   .43+    201020 658  .01+  .11+    
200918 G96  1.1+  .07+    201010 I52  2.1-  .25+    201020 658  .26+  .15-    
200918 G96  1.1+  .16-    201010 I52  .45-  .42-    201020 658  .28+  .02-    
200918 G96  .91+  .50+    201010 I52  .27+  .00     201020 I52  .26+  .06-    
201005 G96  .16+  .62-    201010 I52  .17+  .01-    201020 I52  .07-  .07-    
201005 G96  .02+  .24+    201012 I52  1.3-  .09+    201020 I52  .91-  .03+    
201005 G96  .58-  .20-    201013 711  .05+  .15+    201020 I52  .12+  .02-    
201005 G96  1.1+  .07+    201013 711  .10+  .16+    201020 L07  .41+  .27+    
201005 I52  .41-  .04-    201013 711  .17-  .18+    201020 L07  .52+  .41+    
201005 I52  .85-  .88-    201013 711  .03-  .18+    201021 658  .50+  .76-    
201005 I52  .21+  .28+    201013 711  .52-  .09-    201021 658  .42+  .71-    
201006 H21  1.2+  .47-    201013 K51  .43-  .10-    201021 G58  1.0-  .82+    
201006 H21  .81+  .35-    201013 K51  .27-  .15+    201021 658  .33+  .87-    
201006 H21  .14+  .20+    201013 K51  .34-  .09+    201021 658  .36+  .82-    
201006 I52  1.1-  .19-    201014 711  .46-  .29+    201021 658  .38+  .78-    
201006 I52  .02+  .21-    201014 711  .33-  .11+    201021 658  .59+  .74-    
201006 I52  .50+  .13-    201014 711  .90-  .42+    201021 G58  .93-  .49-    
201006 I52  .01+  .45+    201014 711  .36-  .11+    201021 G58  .14+  .31-    
201007 I52  4.0-  .30-    201015 711  .50+  .30+    201022 658  .51-  .10+    
201007 I52  2.3-  .68-    201015 711  2.3+  .54+    201022 658  .54-  .01+    
201007 I52  .19-  .89-    201015 711  .59-  .78+    201022 658  .10-  .21+    
201007 I52  .56-  .03+    201016 A77  1.7+  .05-    201022 658  .49-  .42+    
201007 L01  .38+  .31+    201016 A77  1.6+  .37+    201023 858  .48-  .31+    
201007 L01  .13-  .54+    201016 A77  .63+  .72+    201023 858  .27+  .34+    
201007 L01  .10+  .14+    201018 204  .68-  .68+    201023 658  .18+  .60-    
201007 L01  .65+  .19-    201018 204  .44-  .54+    201023 658  .21+  .59-    
201008 I52  1.4-  .40-    201019 858  .27+  .44-    201023 658  .13+  .47-    
201008 I52  1.6-  .13+    201019 I52  .12+  .60+    201023 658  .01-  .36-    
201008 I52  .24+  .54-    201019 I52  .35-  .01+    201023 658  .12+  .34-    
201008 I52  .22-  .54-    201019 858  .21-  .54-    201023 658  .23+  .02-    
201009 H06  .38-  .40+    201019 I52  .09-  .08+    201024 N51  .69+  .72-    
201009 H06  .18-  .56+    201019 L07  .60+  .64+    201024 N51  .48+  .65-    
201009 H06  .14+  .33+    201019 L07  .54-  .36-    201024 N51  .70+  .77-    
201009 I52  .73-  .40+    201020 658  .05+  .30-    

Ephemerides (geocentric):
Date (UTC) HH   RA              Dec         delta   r     elong  mag " sig PA
---- -- -- --  -------------   -----------  ------ ------ -----  --- ---- ---
2020 10 27 15  17 57 11.630   +44 59 31.08  1.8495 1.9024  77.6 20.8 .112  13
2020 10 27 16  17 57 19.862   +44 59 34.01  1.8495 1.9024  77.6 20.8 .112  13
2020 10 27 17  17 57 28.099   +44 59 36.92  1.8494 1.9025  77.6 20.8 .113  13
2020 10 27 18  17 57 36.340   +44 59 39.82  1.8493 1.9026  77.6 20.8 .113  13
2020 10 27 19  17 57 44.587   +44 59 42.71  1.8492 1.9026  77.6 20.8 .114  13
2020 10 27 20  17 57 52.838   +44 59 45.59  1.8491 1.9027  77.6 20.8 .114  13
2020 10 27 21  17 58 01.093   +44 59 48.46  1.8491 1.9028  77.7 20.8 .114  13
2020 10 27 22  17 58 09.354   +44 59 51.32  1.8490 1.9028  77.7 20.8 .115  13
2020 10 27 23  17 58 17.619   +44 59 54.17  1.8489 1.9029  77.7 20.8 .115  13
2020 10 28 00  17 58 25.889   +44 59 57.01  1.8488 1.9029  77.7 20.8 .116  13
2020 10 28 01  17 58 34.164   +44 59 59.84  1.8488 1.9030  77.7 20.8 .116  14
2020 10 28 02  17 58 42.444   +45 00 02.65  1.8487 1.9031  77.7 20.8 .116  14
2020 10 28 03  17 58 50.728   +45 00 05.46  1.8486 1.9031  77.7 20.8 .117  14
2020 10 28 04  17 58 59.017   +45 00 08.26  1.8485 1.9032  77.7 20.8 .117  14
2020 10 28 05  17 59 07.311   +45 00 11.04  1.8484 1.9033  77.7 20.8 .118  14
2020 10 28 06  17 59 15.609   +45 00 13.82  1.8484 1.9033  77.7 20.8 .118  14
2020 10 28 07  17 59 23.913   +45 00 16.58  1.8483 1.9034  77.7 20.8 .118  14
2020 10 28 08  17 59 32.221   +45 00 19.34  1.8482 1.9034  77.7 20.8 .119  14
2020 10 28 09  17 59 40.533   +45 00 22.08  1.8481 1.9035  77.7 20.8 .119  14
2020 10 28 10  17 59 48.851   +45 00 24.82  1.8481 1.9036  77.8 20.8 .120  14
2020 10 28 11  17 59 57.173   +45 00 27.54  1.8480 1.9036  77.8 20.8 .120  14
2020 10 28 12  18 00 05.500   +45 00 30.25  1.8479 1.9037  77.8 20.8 .120  14
2020 10 28 13  18 00 13.831   +45 00 32.95  1.8478 1.9038  77.8 20.8 .121  14
2020 10 28 14  18 00 22.167   +45 00 35.64  1.8478 1.9038  77.8 20.8 .121  14
2020 10 28 15  18 00 30.508   +45 00 38.32  1.8477 1.9039  77.8 20.8 .122  14
2020 10 28 16  18 00 38.854   +45 00 40.98  1.8476 1.9040  77.8 20.8 .122  14
2020 10 28 17  18 00 47.205   +45 00 43.64  1.8475 1.9040  77.8 20.8 .122  14
2020 10 28 18  18 00 55.560   +45 00 46.29  1.8474 1.9041  77.8 20.8 .123  14
2020 10 28 19  18 01 03.920   +45 00 48.92  1.8474 1.9042  77.8 20.8 .123  14
2020 10 28 20  18 01 12.284   +45 00 51.54  1.8473 1.9042  77.8 20.8 .124  15
2020 10 28 21  18 01 20.654   +45 00 54.16  1.8472 1.9043  77.8 20.8 .124  15
2020 10 28 22  18 01 29.028   +45 00 56.76  1.8471 1.9044  77.9 20.8 .124  15
2020 10 28 23  18 01 37.406   +45 00 59.35  1.8471 1.9044  77.9 20.8 .125  15
2020 10 29 00  18 01 45.790   +45 01 01.92  1.8470 1.9045  77.9 20.8 .125  15
2020 10 29 01  18 01 54.178   +45 01 04.49  1.8469 1.9045  77.9 20.8 .126  15
2020 10 29 02  18 02 02.571   +45 01 07.05  1.8468 1.9046  77.9 20.8 .126  15
2020 10 29 03  18 02 10.968   +45 01 09.59  1.8468 1.9047  77.9 20.8 .126  15
2020 10 29 04  18 02 19.371   +45 01 12.12  1.8467 1.9047  77.9 20.8 .127  15
2020 10 29 05  18 02 27.777   +45 01 14.65  1.8466 1.9048  77.9 20.8 .127  15
2020 10 29 06  18 02 36.189   +45 01 17.16  1.8465 1.9049  77.9 20.8 .128  15
2020 10 29 07  18 02 44.605   +45 01 19.66  1.8465 1.9049  77.9 20.8 .128  15
2020 10 29 08  18 02 53.027   +45 01 22.14  1.8464 1.9050  77.9 20.8 .128  15
2020 10 29 09  18 03 01.452   +45 01 24.62  1.8463 1.9051  77.9 20.8 .129  15
2020 10 29 10  18 03 09.883   +45 01 27.08  1.8462 1.9052  78.0 20.8 .129  15
2020 10 29 11  18 03 18.318   +45 01 29.54  1.8462 1.9052  78.0 20.8 .130  15
2020 10 29 12  18 03 26.758   +45 01 31.98  1.8461 1.9053  78.0 20.8 .130  15
2020 10 29 13  18 03 35.202   +45 01 34.41  1.8460 1.9054  78.0 20.8 .130  15
2020 10 29 14  18 03 43.651   +45 01 36.82  1.8459 1.9054  78.0 20.8 .131  15